map of CKS home
CKS - Airport
Location
City:  Carajįs, Parį, Brazil
Near (Alt.):Parauapebas
ICAO:SBCJ
IATA:CKS

Details
Type:Airport (Aerodrome, Airfield)
Latitude:6°07'04"S (-6.117805)
Longitude:50°00'12"W (-50.003471)
Datum:WGS 1984
Elevation:2038 ft (621 m)
Variation:20.37°W (WMM2015 magnetic declination)
-0.06° annual change
Runways:1
Longest:6562 × 148 ft (2000 × 45 m), paved

Time
Time Zone:UTC-3
Local Time:

Weather
METAR:SBCJ 211015Z 06005KT 5000 FU OVC008 23/20 Q1015
TAF:SBCJ 210400Z 2106/2118 03005KT 5000 FU BKN006 TN20/2107Z TX29/211 7Z
BECMG 2111/2113 6000 BKN010
BECMG 2115/2117 09005KT 7000 SCT025
RMK PDY

Related Locations
Nearby:
Farthest:MXI: 12187 mi / 19613 km
Mati [Imelda Romualdez Marcos], Mindanao Island, PH

Find:

   beyond  
but within

Other Information
Maps:
NOTAMs:
Links:
Sources:

  
flag of Brazil
flag of Parį
  

Sectional Chart

Flight Planning
at skyvector.com

Satellite Image

Google Maps Satellite view

 

Copyright © 2004-2017 Karl L. Swartz. All rights reserved.
The Great Circle Mapper name and logo are trademarks of the Great Circle Mapper.
All other trademarks mentioned herein belong to their respective owners.
Please see credits for attibutions and further copyright information.

  Follow gcmap on Facebook Follow gcmap on Twitter Follow gcmap on Google+ GCmap on LinkedIn

hCard Microformat

Geo Microformat